Other Public Products
Issued by NWS Grand Forks, ND

Home | Current Version | Previous Version | Graphics & Text | Print | Product List | Glossary On
Versions: 1 2 3 4 5 6 7 8 9 10 11 12 13 14 15 16 17 18 19 20 21 22 23 24 25 26 27 28 29 30 31 32 33 34 35 36 37 38 39 40 41 42 43 44 45 46 47 48 49 50
000
FPUS83 KFGF 270231
OPUFGF
PRAIRIE TO PINES WEATHER ROUNDUP
NATIONAL WEATHER SERVICE EASTERN NORTH DAKOTA/GRAND FORKS ND
800 PM CST THU FEB 26 2015

 **SATELLITE DATA USED TO AUGMENT SKY COVER AT AUTOMATED STATIONS**
 *****  WEATHER ACROSS EASTERN NORTH DAKOTA  *****

CITY           SKY/WX    TMP DP  RH WIND       PRES   REMARKS
GRAND FORKS    PTCLDY    -5 -12  72 W5        30.51F WCI -16
GRAND FORKS AF NOT AVBL
GRAND CITY NWS   N/A     -2 N/A N/A W3          N/A
BUXTON           N/A     -1  -8  72 W6          N/A  WCI -13
DEVILS LAKE    CLEAR    N/A N/A N/A MISG        N/A
FARGO          CLEAR      2  -7  66 W10       30.53R WCI -14
WAHPETON ARPT  CLEAR      0  -8  71 W9        30.53S WCI -16
$$

 *****  WEATHER ACROSS CENTRAL AND WESTERN NORTH DAKOTA  *****

CITY           SKY/WX    TMP DP  RH WIND       PRES   REMARKS
JAMESTOWN      CLEAR     -5 -11  75 NW9       30.48F WCI -22
BISMARCK       CLEAR      3  -5  69 NW9       30.53S WCI -12
MINOT          CLEAR     -1 -10  65 W9        30.49F WCI -16
MINOT AFB      NOT AVBL
GARRISON         N/A     -5 -11  75 NW5       30.49F WCI -16
WILLISTON        N/A     -8 -14  74 MISG      30.49F
DICKINSON      CLEAR      2  -7  66 E6        30.41F WCI  -9
HETTINGER      CLEAR      0  -7  72 N5        30.43S WCI -10
$$

 *****  OTHER OBSERVATIONS NORTHEAST NORTH DAKOTA  *****

CITY           SKY/WX    TMP DP  RH WIND       PRES   REMARKS
WALHALLA         N/A      1  -9  60 W7        30.48F WCI -11
LANGDON        NOT AVBL
CAVALIER       FAIR       0  -9  65 W7        30.49F WCI -13
GRAFTON        NOT AVBL
CANDO          FAIR      -4  -9  77 W12       30.47F WCI -22
FORT TOTTEN    NOT AVBL
ROLLA          FAIR       0 -11  60 W3        30.43S
RUGBY          FAIR      -9 -13  84 W9        30.49S WCI -27
 ***** THE ABOVE OBSERVATIONS ARE NON NWS ARE NOT QUALITY
        CONTROLLED AND MAY MIS-REPORT RAIN FOR SNOW...
$$

 *****  OTHER OBSERVATIONS SOUTHEAST NORTH DAKOTA *****

CITY           SKY/WX    TMP DP  RH WIND       PRES   REMARKS
COOPERSTOWN    NOT AVBL
VALLEY CITY    FAIR      -2  -9  71 NW10      30.48F WCI -19
OAKES            N/A     -4  -9  77 W7        30.52S WCI -18
GWINNER        CLEAR      1  -8  66 NW9       30.53S WCI -14
SHEYENNE NWR     N/A     -4 -13  65 W6        29.95  WCI -16
BUFFALO        NOT AVBL
WYNDMERE         N/A      0  -9  65 W7          N/A  WCI -13
 ***** THE ABOVE OBSERVATIONS ARE NON NWS ARE NOT QUALITY
       CONTROLLED AND MAY MIS-REPORT RAIN FOR SNOW...
$$

  *****  WEATHER ACROSS NORTHERN MINNESOTA  *****

CITY           SKY/WX    TMP DP  RH WIND       PRES   REMARKS
FLAG ISLAND    CLEAR      0  -9  65 W12       30.40S WCI -18
WARROAD        CLEAR      0  -9  65 W8        30.42F WCI -15
ROSEAU         CLEAR      0  -8  71 W8        30.44S WCI -15
HALLOCK        CLEAR     -2  -9  71 W7        30.49S WCI -16
THF RVR FALLS  CLEAR     -2  -2 100 W5        30.46F WCI -12
HALSTAD          N/A     -3 -11  67 W8          N/A  WCI -18
FOSSTON        CLEAR    -11 -17  77 CALM      30.46S
BAUDETTE       CLEAR     -1 -10  65 W9        30.38S WCI -16
WASKISH        CLEAR     -6  -9  84 SW3       30.42S
CROOKSTON      CLEAR     -6  -9  84 W6        30.51F WCI -18
$$
  *****  WEATHER ACROSS CENTRAL AND WEST MINNESOTA  *****

CITY           SKY/WX    TMP DP  RH WIND       PRES   REMARKS
BEMIDJI        CLEAR     -6 -12  74 W7        30.41F WCI -20
PARK RAPIDS    CLEAR     -8 -15  71 W6        30.42S WCI -21
WADENA         CLEAR     -4  -9  77 W5        30.45S WCI -15
DETROIT LAKES  CLEAR      1  -4  78 NW7       30.46S WCI -11
MOORHEAD       CLEAR      1  -4  78 NW9       30.52F WCI -14
FERGUS FALLS   PTCLDY    -2  -9  71 NW5       30.54S WCI -12
ELBOW LAKE     FAIR      -3  -9  77 NW5       30.49F WCI -14
MORRIS MN      CLEAR     -2  -9  71 W8        30.50F WCI -17
STAPLES        CLEAR     -4 -11  71 NW8       30.44F WCI -19
WHEATON        CLEAR     -6 -11  77 W3        30.56S
$$
  *****  WEATHER ELSEWHERE ACROSS MINNESOTA  *****

CITY           SKY/WX    TMP DP  RH WIND       PRES   REMARKS
DULUTH         CLEAR      2 -12  52 NW10      30.33S WCI -14
INTRNTL FALLS  CLEAR    -11 -18  71 W3        30.37F
ELY            CLEAR     -4 -17  54 W5        30.33S WCI -15
CLOQUET        CLEAR      1 -15  46 W8        30.37S WCI -12
BRAINERD       CLEAR      2 -12  52 NW10      30.43R WCI -14
HIBBING        CLEAR      0 -14  51 W9        30.36S WCI -15
ALEXANDRIA     CLEAR     -3 -10  72 NW8       30.46S WCI -18
SAINT CLOUD    CLEAR      2  -8  63 NW10      30.45S WCI -14
MINNEAPOLIS    CLEAR      5  -8  55 NW9       30.47R WCI  -9
$$

  *****  WEATHER ACROSS SOUTH DAKOTA  *****

CITY           SKY/WX    TMP DP  RH WIND       PRES   REMARKS
SIOUX FALLS    CLEAR     -2  -8  76 NW8       30.51S WCI -17
BROOKINGS      NOT AVBL
WATERTOWN      CLEAR     -4 -10  75 NW6       30.48R WCI -16
HURON          CLEAR    -10 -15  78 NW7       30.56S WCI -25
SISSETON         N/A     -4 -10  75 NW7       30.53R WCI -18
ABERDEEN       CLEAR     -1 -10  65 NW8       30.56R WCI -15
MITCHELL       CLEAR      0  -6  76 W6        30.58R WCI -12
PIERRE         CLEAR      4  -4  69 NE5       30.52S WCI  -5
MOBRIDGE       CLEAR     -4 -10  75 N3        30.49S
RAPID CITY     CLEAR     -2  -9  72 NW7       30.39S WCI -15
$$

  *****  SOME WEATHER IN NEARBY STATES *****

CITY           SKY/WX    TMP DP  RH WIND       PRES   REMARKS
GLASGOW MT     CLEAR      5  -5  63 SE9       30.41F WCI  -9
GREAT FALLS MT CLEAR     11   5  77 E10       30.12F WCI  -3
CHEYENNE WY    LGT SNOW   8   3  80 SE12      30.09S WCI  -7
SCOTTSBLUFF NE PTCLDY    10   2  69 NE14      30.30R WCI  -6
OMAHA NE       PTCLDY     7   0  73 N8        30.56R WCI  -6
DES MOINES IA  CLEAR      4  -6  63 NW9       30.53R WCI -10
DAVENPORT IA   CLEAR     -1  -9  68 NW12      30.46R WCI -18
CHICAGO IL     PTCLDY     8  -6  52 NW12      30.38R WCI  -7
EAU CLAIRE WI  FAIR       1 -12  54 W5        30.42R WCI  -9
LA CROSSE WI   CLEAR      1  -9  62 NW5       30.46R WCI  -9
$$

  *****  SOME NATIONAL WEATHER *****

CITY           SKY/WX    TMP DP  RH WIND       PRES   REMARKS
LA GUARDIA NY  CLOUDY    24  13  62 N8        30.11R WCI  15
RALEIGH NC     MOCLDY    29  27  92 CALM      30.09R FOG
ATLANTA GA     MOCLDY    37  29  72 NW7       30.12R
NEW ORLEANS LA CLOUDY    47  34  60 N9        30.19R
OKLAHOMA CITY  PTCLDY    27  -1  30 N10       30.42R WCI  17
ALBUQUERQUE NM CLOUDY    32  20  61 E28       29.95R WCI  18
SALT LAKE CITY MOCLDY    36  30  79 W7        29.91R
LOS ANGELES CA PTCLDY    59  53  80 W7        29.85S
BOISE ID       LGT RAIN  44  35  70 N10G17    29.94S
SEATTLE WA     LGT RAIN  50  45  83 CALM      29.97F
$$

*** WEATHER ACROSS MANITOBA...SASKATCHEWAN AND ONTARIO ***
                ***ONTARIO***

CITY           SKY/WX    TMP DP  RH WIND       PRES   REMARKS
GERALDTON      CLEAR     -4 -13  65 W7        30.16S WCI -18
THUNDER BAY    CLEAR      3 -11  51 W8        30.32S WCI -10
SIOUX LOOKOUT  CLEAR      0  -9  65 W5        30.28  WCI -10
TORONTO        MOCLDY     5  -8  56 N13G20    30.24R WCI -12
BIG TROUT LK   CLEAR      1  -8  66 W12       30.09S WCI -15
PICKLE LAKE    CLEAR      1  -9  60 W12       30.16S WCI -15
DRYDEN         CLEAR     -2  -9  71 W10       30.30S WCI -19
KENORA         PTCLDY     0 -13  55 NW9       30.35S WCI -16
$$
                *** MANITOBA***

CITY           SKY/WX    TMP DP  RH WIND       PRES   REMARKS
BRANDON        CLEAR     -4 -13  65 W14       30.47S WCI -24
DAUPHIN        CLEAR      3  -8  60 W16G22    30.45S WCI -16
ISLAND LAKE    CLEAR      3 -11  51 W10       30.23F WCI -12
PILOT MOUND      N/A     -2  -9  71 W8          N/A  WCI -17
THE PAS        PTCLDY     7 -11  43 SW10      30.36F WCI  -8
THOMPSON       PTCLDY     7 -11  43 SW8       30.19F WCI  -6
WINNIPEG       CLEAR     -4 -11  71 W9        30.47F WCI -20
LYNN LAKE      MOCLDY    10  -6  48 W13G18    30.11F WCI  -5
CHURCHILL      PTCLDY     3  -8  60 W14       29.92F WCI -15
GILLAM         PTCLDY     7  -9  47 W16       30.09  WCI -11
$$
                ***SASKATCHEWAN***

CITY           SKY/WX    TMP DP  RH WIND       PRES   REMARKS
ESTEVAN        CLEAR     -8 -13  77 W7        30.49F WCI -22
KINDERSLEY     PTCLDY     1  -6  71 SE14      30.28  WCI -17
LLOYDMINSTER   MOCLDY     1  -8  66 S14       30.25F WCI -17
PRINCE ALBERT  CLEAR     -4 -11  71 SW6       30.40F WCI -16
REGINA         CLEAR     -6  -9  84 S6        30.45F WCI -18



USA.gov is the U.S. government's official web portal to all federal, state and local government web resources and services.